Time,TemperatureF,DewpointF,PressureIn,WindDirection,WindDirectionDegrees,WindSpeedMPH,WindSpeedGustMPH,Humidity,HourlyPrecipIn,Conditions,Clouds,dailyrainin,SolarRadiationWatts/m^2,SoftwareType,DateUTC
2013-01-31 05:10:00,27.0,23.0,-100.00,West,278,3.0,6.0,85,-99.99,,,-99.99,0.000000,,2013-01-31 13:10:00,
2013-01-31 05:30:00,28.0,24.0,-100.00,NW,322,3.0,4.0,86,-99.99,,,-99.99,0.000000,,2013-01-31 13:30:00,
2013-01-31 06:02:00,27.0,23.0,-100.00,West,278,3.0,6.0,85,-99.99,,,-99.99,0.000000,,2013-01-31 14:02:00,
2013-01-31 06:22:00,28.0,24.0,-100.00,NW,322,3.0,4.0,86,-99.99,,,-99.99,0.000000,,2013-01-31 14:22:00,
2013-01-31 06:42:00,26.0,22.0,-100.00,NE,35,2.0,4.0,84,-99.99,,,-99.99,0.000000,,2013-01-31 14:42:00,
2013-01-31 06:52:00,26.0,22.0,-100.00,North,11,1.0,4.0,85,-99.99,,,-99.99,0.000000,,2013-01-31 14:52:00,
2013-01-31 07:02:00,26.0,22.0,-100.00,North,11,1.0,4.0,85,-99.99,,,-99.99,0.000000,,2013-01-31 15:02:00,
2013-01-31 07:12:00,26.0,22.0,-100.00,North,10,1.0,3.0,86,-99.99,,,-99.99,0.000000,,2013-01-31 15:12:00,
2013-01-31 07:22:00,25.0,22.0,-100.00,NNW,334,2.0,3.0,86,-99.99,,,-99.99,2.000000,,2013-01-31 15:22:00,
2013-01-31 07:32:00,25.0,22.0,-100.00,NNW,334,2.0,3.0,86,-99.99,,,-99.99,2.000000,,2013-01-31 15:32:00,
2013-01-31 07:42:00,25.0,22.0,-100.00,NNW,343,4.0,5.0,89,-99.99,,,-99.99,7.000000,,2013-01-31 15:42:00,
2013-01-31 07:51:00,26.0,22.0,-100.00,NW,314,3.0,5.0,87,-99.99,,,-99.99,7.000000,,2013-01-31 15:51:00,
2013-01-31 08:03:00,26.0,22.0,-100.00,NW,314,3.0,5.0,87,-99.99,,,-99.99,7.000000,,2013-01-31 16:03:00,
2013-01-31 08:12:00,25.0,22.0,-100.00,NW,309,1.0,6.0,89,-99.99,,,-99.99,34.000000,,2013-01-31 16:12:00,
2013-01-31 08:21:00,25.0,22.0,-100.00,ENE,67,1.0,4.0,88,-99.99,,,-99.99,69.000000,,2013-01-31 16:21:00,
2013-01-31 08:32:00,25.0,22.0,-100.00,ESE,110,3.0,5.0,88,-99.99,,,-99.99,156.000000,,2013-01-31 16:32:00,
2013-01-31 08:40:00,29.0,23.0,-100.00,SE,136,7.0,11.0,77,-99.99,,,-99.99,310.000000,,2013-01-31 16:40:00,
2013-01-31 08:42:00,25.0,22.0,-100.00,SSE,159,5.0,8.0,87,-99.99,,,-99.99,186.000000,,2013-01-31 16:42:00,
2013-01-31 08:51:00,25.0,22.0,-100.00,SSE,159,5.0,8.0,87,-99.99,,,-99.99,186.000000,,2013-01-31 16:51:00,
2013-01-31 09:02:00,26.0,21.0,-100.00,SSE,152,8.0,11.0,81,-99.99,,,-99.99,246.000000,,2013-01-31 17:02:00,
2013-01-31 09:12:00,27.0,22.0,-100.00,SE,138,8.0,11.0,79,-99.99,,,-99.99,279.000000,,2013-01-31 17:12:00,
2013-01-31 09:22:00,29.0,23.0,-100.00,SE,136,7.0,11.0,77,-99.99,,,-99.99,310.000000,,2013-01-31 17:22:00,
2013-01-31 09:32:00,29.0,23.0,-100.00,SE,136,7.0,11.0,77,-99.99,,,-99.99,310.000000,,2013-01-31 17:32:00,
2013-01-31 10:02:00,38.0,26.0,-100.00,SSE,148,1.0,2.0,61,-99.99,,,-99.99,409.000000,,2013-01-31 18:02:00,
2013-01-31 10:12:00,37.0,26.0,-100.00,SSW,206,3.0,5.0,64,-99.99,,,-99.99,441.000000,,2013-01-31 18:12:00,
2013-01-31 10:21:00,36.0,26.0,-100.00,SSW,208,3.0,3.0,67,-99.99,,,-99.99,463.000000,,2013-01-31 18:21:00,
2013-01-31 10:32:00,36.0,26.0,-100.00,SSW,208,3.0,3.0,67,-99.99,,,-99.99,463.000000,,2013-01-31 18:32:00,
2013-01-31 10:42:00,38.0,26.0,-100.00,SSW,201,3.0,4.0,62,-99.99,,,-99.99,495.000000,,2013-01-31 18:42:00,
2013-01-31 10:52:00,38.0,27.0,-100.00,South,180,3.0,5.0,63,-99.99,,,-99.99,517.000000,,2013-01-31 18:52:00,
2013-01-31 11:00:00,41.0,26.0,-100.00,NW,316,1.0,3.0,56,-99.99,,,-99.99,606.000000,,2013-01-31 19:00:00,
2013-01-31 11:02:00,39.0,27.0,-100.00,South,174,3.0,4.0,61,-99.99,,,-99.99,552.000000,,2013-01-31 19:02:00,
2013-01-31 11:11:00,40.0,26.0,-100.00,SSE,155,2.0,3.0,58,-99.99,,,-99.99,567.000000,,2013-01-31 19:11:00,
2013-01-31 11:21:00,42.0,26.0,-100.00,SSW,211,1.0,2.0,54,-99.99,,,-99.99,580.000000,,2013-01-31 19:21:00,
2013-01-31 11:32:00,41.0,26.0,-100.00,WNW,295,1.0,2.0,56,-99.99,,,-99.99,593.000000,,2013-01-31 19:32:00,
2013-01-31 11:42:00,41.0,26.0,-100.00,NW,316,1.0,3.0,56,-99.99,,,-99.99,606.000000,,2013-01-31 19:42:00,
2013-01-31 11:51:00,41.0,26.0,-100.00,NW,316,1.0,3.0,56,-99.99,,,-99.99,606.000000,,2013-01-31 19:51:00,
2013-01-31 12:11:00,41.0,27.0,-100.00,NNW,335,3.0,5.0,57,-99.99,,,-99.99,632.000000,,2013-01-31 20:11:00,
2013-01-31 12:21:00,41.0,26.0,-100.00,NNW,331,4.0,5.0,56,-99.99,,,-99.99,633.000000,,2013-01-31 20:21:00,
2013-01-31 12:31:00,41.0,26.0,-100.00,NNW,331,4.0,5.0,56,-99.99,,,-99.99,633.000000,,2013-01-31 20:31:00,
2013-01-31 12:42:00,41.0,26.0,-100.00,NE,35,3.0,6.0,55,-99.99,,,-99.99,633.000000,,2013-01-31 20:42:00,
2013-01-31 12:52:00,41.0,26.0,-100.00,NE,35,3.0,6.0,55,-99.99,,,-99.99,633.000000,,2013-01-31 20:52:00,
2013-01-31 13:02:00,43.0,26.0,-100.00,NNW,340,2.0,6.0,52,-99.99,,,-99.99,633.000000,,2013-01-31 21:02:00,
2013-01-31 13:12:00,43.0,27.0,-100.00,NE,50,2.0,3.0,53,-99.99,,,-99.99,631.000000,,2013-01-31 21:12:00,
2013-01-31 13:21:00,43.0,27.0,-100.00,NE,36,1.0,4.0,52,-99.99,,,-99.99,621.000000,,2013-01-31 21:21:00,
2013-01-31 13:31:00,43.0,27.0,-100.00,NE,36,1.0,4.0,52,-99.99,,,-99.99,621.000000,,2013-01-31 21:31:00,
2013-01-31 13:42:00,44.0,27.0,-100.00,NW,312,2.0,3.0,51,-99.99,,,-99.99,605.000000,,2013-01-31 21:42:00,
2013-01-31 13:52:00,43.0,27.0,-100.00,NW,325,3.0,4.0,53,-99.99,,,-99.99,593.000000,,2013-01-31 21:52:00,
2013-01-31 14:02:00,43.0,27.0,-100.00,NW,325,3.0,4.0,53,-99.99,,,-99.99,593.000000,,2013-01-31 22:02:00,
2013-01-31 14:11:00,45.0,27.0,-100.00,NW,320,1.0,3.0,48,-99.99,,,-99.99,564.000000,,2013-01-31 22:11:00,
2013-01-31 14:22:00,45.0,27.0,-100.00,NNW,333,1.0,3.0,49,-99.99,,,-99.99,548.000000,,2013-01-31 22:22:00,
2013-01-31 14:30:00,45.0,28.0,-100.00,North,8,2.0,4.0,50,-99.99,,,-99.99,439.000000,,2013-01-31 22:30:00,
2013-01-31 14:32:00,45.0,27.0,-100.00,NNW,333,1.0,3.0,49,-99.99,,,-99.99,548.000000,,2013-01-31 22:32:00,
2013-01-31 14:42:00,44.0,28.0,-100.00,NNE,19,3.0,5.0,52,-99.99,,,-99.99,507.000000,,2013-01-31 22:42:00,
2013-01-31 14:51:00,45.0,28.0,-100.00,NNW,342,2.0,4.0,51,-99.99,,,-99.99,486.000000,,2013-01-31 22:51:00,
2013-01-31 15:02:00,45.0,28.0,-100.00,NNW,342,2.0,4.0,51,-99.99,,,-99.99,486.000000,,2013-01-31 23:02:00,
2013-01-31 15:12:00,46.0,28.0,-100.00,North,359,2.0,4.0,50,-99.99,,,-99.99,464.000000,,2013-01-31 23:12:00,
2013-01-31 15:21:00,45.0,28.0,-100.00,North,8,2.0,4.0,50,-99.99,,,-99.99,439.000000,,2013-01-31 23:21:00,
2013-01-31 15:30:00,44.0,28.0,-100.00,North,350,6.0,8.0,53,-99.99,,,-99.99,266.000000,,2013-01-31 23:30:00,
2013-01-31 15:42:00,46.0,28.0,-100.00,North,360,2.0,5.0,49,-99.99,,,-99.99,357.000000,,2013-01-31 23:42:00,
2013-01-31 15:52:00,46.0,29.0,-100.00,NNW,345,4.0,6.0,50,-99.99,,,-99.99,327.000000,,2013-01-31 23:52:00,
2013-01-31 16:01:00,45.0,29.0,-100.00,NNW,346,5.0,7.0,52,-99.99,,,-99.99,296.000000,,2013-02-01 00:01:00,
2013-01-31 16:11:00,44.0,28.0,-100.00,North,350,6.0,8.0,53,-99.99,,,-99.99,266.000000,,2013-02-01 00:11:00,
2013-01-31 16:21:00,44.0,28.0,-100.00,North,350,6.0,8.0,53,-99.99,,,-99.99,266.000000,,2013-02-01 00:21:00,
2013-01-31 16:42:00,42.0,28.0,-100.00,NNW,328,7.0,9.0,57,-99.99,,,-99.99,175.000000,,2013-02-01 00:42:00,
2013-01-31 16:52:00,41.0,28.0,-100.00,NW,325,8.0,10.0,60,-99.99,,,-99.99,145.000000,,2013-02-01 00:52:00,
2013-01-31 17:01:00,41.0,28.0,-100.00,NW,325,8.0,10.0,60,-99.99,,,-99.99,145.000000,,2013-02-01 01:01:00,
2013-01-31 17:11:00,40.0,29.0,-100.00,NW,323,8.0,9.0,64,-99.99,,,-99.99,107.000000,,2013-02-01 01:11:00,
2013-01-31 17:21:00,40.0,29.0,-100.00,NNW,328,7.0,9.0,66,-99.99,,,-99.99,70.000000,,2013-02-01 01:21:00,
2013-01-31 17:31:00,39.0,29.0,-100.00,NNW,341,5.0,8.0,66,-99.99,,,-99.99,13.000000,,2013-02-01 01:31:00,
2013-01-31 17:41:00,38.0,29.0,-100.00,NNW,340,4.0,6.0,69,-99.99,,,-99.99,7.000000,,2013-02-01 01:41:00,
2013-01-31 17:51:00,36.0,28.0,-100.00,WSW,244,2.0,4.0,71,-99.99,,,-99.99,7.000000,,2013-02-01 01:51:00,
2013-01-31 18:01:00,36.0,28.0,-100.00,SW,219,3.0,5.0,74,-99.99,,,-99.99,7.000000,,2013-02-01 02:01:00,
2013-01-31 18:11:00,34.0,28.0,-100.00,WSW,239,5.0,6.0,76,-99.99,,,-99.99,0.000000,,2013-02-01 02:11:00,
2013-01-31 18:21:00,34.0,28.0,-100.00,WSW,239,5.0,6.0,76,-99.99,,,-99.99,0.000000,,2013-02-01 02:21:00,
2013-01-31 18:31:00,35.0,27.0,-100.00,WSW,250,5.0,6.0,74,-99.99,,,-99.99,0.000000,,2013-02-01 02:31:00,
2013-01-31 18:41:00,34.0,27.0,-100.00,South,169,2.0,5.0,75,-99.99,,,-99.99,0.000000,,2013-02-01 02:41:00,
2013-01-31 18:52:00,31.0,26.0,-100.00,ESE,115,4.0,6.0,81,-99.99,,,-99.99,0.000000,,2013-02-01 02:52:00,
2013-01-31 19:01:00,29.0,26.0,-100.00,ESE,103,4.0,5.0,87,-99.99,,,-99.99,0.000000,,2013-02-01 03:01:00,
2013-01-31 19:12:00,29.0,26.0,-100.00,ESE,103,4.0,5.0,87,-99.99,,,-99.99,0.000000,,2013-02-01 03:12:00,
2013-01-31 19:21:00,28.0,25.0,-100.00,SE,133,5.0,6.0,88,-99.99,,,-99.99,0.000000,,2013-02-01 03:21:00,
2013-01-31 19:32:00,28.0,25.0,-100.00,SE,133,5.0,6.0,88,-99.99,,,-99.99,0.000000,,2013-02-01 03:32:00,
2013-01-31 19:41:00,28.0,24.0,-100.00,SE,142,5.0,8.0,87,-99.99,,,-99.99,0.000000,,2013-02-01 03:41:00,
2013-01-31 19:51:00,28.0,24.0,-100.00,SE,142,5.0,8.0,87,-99.99,,,-99.99,0.000000,,2013-02-01 03:51:00,
2013-01-31 20:02:00,26.0,23.0,-100.00,SSE,152,7.0,9.0,88,-99.99,,,-99.99,0.000000,,2013-02-01 04:02:00,
2013-01-31 20:11:00,25.0,23.0,-100.00,SE,146,8.0,9.0,91,-99.99,,,-99.99,0.000000,,2013-02-01 04:11:00,
2013-01-31 20:21:00,25.0,23.0,-100.00,SE,146,8.0,9.0,91,-99.99,,,-99.99,0.000000,,2013-02-01 04:21:00,
2013-01-31 20:31:00,25.0,23.0,-100.00,SSE,149,8.0,10.0,91,-99.99,,,-99.99,0.000000,,2013-02-01 04:31:00,
2013-01-31 20:41:00,25.0,22.0,-100.00,SE,144,9.0,11.0,91,-99.99,,,-99.99,0.000000,,2013-02-01 04:41:00,
2013-01-31 20:51:00,25.0,22.0,-100.00,SE,146,9.0,11.0,90,-99.99,,,-99.99,0.000000,,2013-02-01 04:51:00,
2013-01-31 21:03:00,24.0,22.0,-100.00,SSE,148,9.0,12.0,90,-99.99,,,-99.99,0.000000,,2013-02-01 05:03:00,
2013-01-31 21:11:00,24.0,22.0,-100.00,SSE,148,9.0,12.0,90,-99.99,,,-99.99,0.000000,,2013-02-01 05:11:00,
2013-01-31 21:22:00,23.0,21.0,-100.00,SE,144,10.0,11.0,91,-99.99,,,-99.99,0.000000,,2013-02-01 05:22:00,
2013-01-31 21:32:00,23.0,21.0,-100.00,SSE,148,9.0,11.0,91,-99.99,,,-99.99,0.000000,,2013-02-01 05:32:00,
2013-01-31 21:41:00,23.0,21.0,-100.00,SSE,153,10.0,12.0,90,-99.99,,,-99.99,0.000000,,2013-02-01 05:41:00,
2013-01-31 21:52:00,23.0,21.0,-100.00,SSE,153,10.0,12.0,90,-99.99,,,-99.99,0.000000,,2013-02-01 05:52:00,
2013-01-31 22:02:00,23.0,21.0,-100.00,SSE,152,9.0,11.0,90,-99.99,,,-99.99,0.000000,,2013-02-01 06:02:00,
2013-01-31 22:11:00,23.0,20.0,-100.00,SSE,147,9.0,11.0,90,-99.99,,,-99.99,0.000000,,2013-02-01 06:11:00,
2013-01-31 22:20:00,22.0,20.0,-100.00,SSE,149,11.0,13.0,90,-99.99,,,-99.99,0.000000,,2013-02-01 06:20:00,
2013-01-31 22:21:00,23.0,21.0,-100.00,SSE,149,9.0,12.0,90,-99.99,,,-99.99,0.000000,,2013-02-01 06:21:00,
2013-01-31 22:32:00,23.0,21.0,-100.00,SSE,149,9.0,12.0,90,-99.99,,,-99.99,0.000000,,2013-02-01 06:32:00,
2013-01-31 22:40:00,22.0,20.0,-100.00,SE,146,11.0,16.0,90,-99.99,,,-99.99,0.000000,,2013-02-01 06:40:00,
2013-01-31 22:41:00,23.0,20.0,-100.00,SSE,154,11.0,13.0,89,-99.99,,,-99.99,0.000000,,2013-02-01 06:41:00,
2013-01-31 22:52:00,22.0,20.0,-100.00,SE,145,11.0,14.0,91,-99.99,,,-99.99,0.000000,,2013-02-01 06:52:00,
2013-01-31 23:01:00,22.0,20.0,-100.00,SSE,149,11.0,13.0,90,-99.99,,,-99.99,0.000000,,2013-02-01 07:01:00,
2013-01-31 23:12:00,22.0,20.0,-100.00,SSE,149,11.0,13.0,90,-99.99,,,-99.99,0.000000,,2013-02-01 07:12:00,
2013-01-31 23:32:00,22.0,20.0,-100.00,SE,146,11.0,16.0,90,-99.99,,,-99.99,0.000000,,2013-02-01 07:32:00,
2013-01-31 23:51:00,20.0,18.0,-100.00,SSE,154,13.0,16.0,90,-99.99,,,-99.99,0.000000,,2013-02-01 07:51:00,